Terminal Aerodrome Forecast
Issued by NWS Central Illinois

Home | Current Version | Previous Version | Text Only | Print | Product List | Glossary On
Versions: 1 2 3 4 5 6 7 8 9 10 11 12 13 14 15 16 17 18 19 20 21 22
000
FTUS43 KILX 220500
TAFSPI
TAF
KSPI 220520Z 2206/2306 19006KT P6SM SCT120
     FM221400 24008KT P6SM SCT035 BKN250
     FM221800 24010KT P6SM SCT040
     FM230100 24004KT P6SM BKN250=

USA.gov is the U.S. government's official web portal to all federal, state and local government web resources and services.